GW3565 Weather Reports


time (UTC)temp
C
wind
direction
speed
KPH
gust
KPH
rain 1hr
cm
rain 24hr
cm
rain mn
cm
humidity
%
barometer
mb
20260906203031 28 175 0.0 4.8 0.00 0.03 0.00 80 1014.4
20260906201526 27 112 0.0 3.2 0.00 0.03 0.00 81 1014.6
20260906200013 27 110 0.0 3.2 0.00 0.03 0.00 81 1014.5
20260906194514 27 155 1.6 11.3 0.00 0.03 0.00 80 1014.4
20260906193011 27 104 1.6 4.8 0.00 0.03 0.00 83 1013.9
20260906191532 27 113 1.6 4.8 0.00 0.03 0.00 83 1014.3
20260906190034 26 107 1.6 6.4 0.00 0.03 0.00 83 1014.3
20260906184518 26 118 3.2 6.4 0.00 0.03 0.00 85 1014.6
20260906183033 26 128 0.0 3.2 0.00 0.03 0.00 85 1015.0
20260906181523 25 113 0.0 6.4 0.00 0.03 0.00 85 1015.2
20260906180010 25 122 0.0 9.7 0.00 0.03 0.00 86 1015.3
20260906174516 25 147 1.6 6.4 0.00 0.03 0.00 85 1015.3
20260906173010 24 138 1.6 9.7 0.00 0.03 0.00 87 1015.5
20260906171528 24 129 0.0 11.3 0.00 0.03 0.00 86 1015.7
20260906170033 23 128 0.0 4.8 0.00 0.03 0.00 87 1015.9
20260906164511 23 127 3.2 11.3 0.00 0.03 0.00 88 1016.1
20260906163017 23 135 3.2 11.3 0.00 0.48 0.00 87 1016.0
20260906161523 23 116 0.0 6.4 0.00 1.12 0.00 88 1016.2
20260906160016 23 107 1.6 9.7 0.00 1.19 0.00 87 1016.2
20260906154513 23 188 1.6 9.7 0.00 2.08 0.00 88 1016.3
20260906153012 22 101 1.6 6.4 0.00 2.26 0.00 88 1016.3
20260906151518 22 138 1.6 11.3 0.00 2.26 0.00 89 1016.2
20260906150037 22 105 3.2 6.4 0.00 2.26 0.00 89 1016.3
20260906144529 22 119 1.6 9.7 0.00 2.26 0.00 89 1016.4
20260906143019 22 114 1.6 6.4 0.00 2.26 0.00 91 1016.7
20260906141516 21 82 3.2 11.3 0.00 2.26 0.00 91 1016.7
20260906140025 21 94 3.2 6.4 0.00 2.26 0.00 92 1016.8
20260906134540 21 119 1.6 6.4 0.00 2.26 0.00 92 1016.9
20260906133049 20 111 1.6 4.8 0.00 2.26 0.00 92 1016.8
20260906131531 20 120 1.6 6.4 0.00 2.26 0.00 92 1016.7
20260906130020 20 105 0.0 4.8 0.00 2.26 0.00 92 1016.7
20260906124521 20 127 0.0 4.8 0.00 2.26 0.00 92 1016.6
20260906123031 20 102 1.6 6.4 0.00 2.26 0.00 92 1016.5
20260906121532 20 111 1.6 4.8 0.00 2.26 0.00 92 1016.4
20260906120009 20 121 1.6 4.8 0.00 2.26 0.00 92 1016.3
20260906114510 20 118 3.2 6.4 0.00 2.26 0.00 92 1016.2
20260906113003 20 123 3.2 4.8 0.00 2.26 0.00 92 1016.3
20260906111508 20 123 1.6 6.4 0.00 2.26 0.00 93 1016.3
20260906110013 19 113 3.2 9.7 0.00 2.26 0.00 93 1016.4
20260906104522 19 123 1.6 11.3 0.00 2.26 0.00 94 1016.3
20260906103015 19 103 3.2 4.8 0.00 2.26 0.00 94 1016.2
20260906101504 18 123 1.6 4.8 0.00 2.26 0.00 94 1016.1
20260906100008 18 108 1.6 4.8 0.00 2.26 0.00 93 1016.5
20260906094504 18 108 1.6 3.2 0.00 2.26 0.00 92 1016.4
20260906093016 18 108 0.0 1.6 0.00 2.26 0.00 92 1016.3
20260906091519 18 108 1.6 3.2 0.00 2.26 0.00 92 1016.2
20260906090008 18 46 0.0 1.6 0.00 2.26 0.00 91 1016.2
20260906084512 19 46 0.0 1.6 0.00 2.26 0.00 90 1016.2
20260906083011 19 46 0.0 3.2 0.00 2.26 0.00 90 1016.2
20260906081507 19 46 0.0 1.6 0.00 2.26 0.00 90 1016.2
20260906080025 20 46 1.6 4.8 0.00 2.26 0.00 90 1016.2
20260906074508 20 61 0.0 3.2 0.00 2.26 0.00 90 1016.1
20260906073021 20 110 0.0 4.8 0.00 2.26 0.00 89 1016.1
20260906071521 20 72 0.0 3.2 0.00 2.26 0.00 89 1016.1
20260906070016 20 111 0.0 3.2 0.00 2.26 0.00 89 1016.3
20260906064508 20 111 0.0 3.2 0.00 2.26 0.00 89 1016.3
20260906063013 20 111 0.0 3.2 0.00 2.26 0.00 90 1016.4
20260906061523 20 122 1.6 4.8 0.00 2.26 0.00 90 1016.3
20260906060028 20 113 0.0 6.4 0.00 2.26 0.00 90 1016.2
20260906054527 20 109 3.2 6.4 0.00 2.26 0.00 90 1015.9
20260906053024 20 120 4.8 9.7 0.00 2.26 0.00 90 1015.7
20260906051516 20 110 4.8 9.7 0.00 2.26 0.00 90 1015.8
20260906050012 20 75 0.0 3.2 0.00 2.26 0.00 89 1016.0
20260906044531 21 111 1.6 4.8 0.00 2.26 2.26 89 1016.1
20260906043006 21 108 3.2 4.8 0.00 2.26 2.26 88 1016.2
20260906041506 21 78 0.0 4.8 0.00 2.26 2.26 87 1016.1
20260906040004 21 70 0.0 3.2 0.00 2.26 2.26 88 1016.2
20260906034508 21 106 3.2 6.4 0.00 2.26 2.26 87 1016.2
20260906033003 22 94 1.6 6.4 0.00 2.26 2.26 87 1016.3
20260906031508 22 117 1.6 4.8 0.00 2.26 2.26 87 1016.3
20260906030010 22 115 3.2 6.4 0.03 2.26 2.26 86 1016.5
20260906024506 22 51 1.6 4.8 0.03 2.26 2.26 86 1016.5
20260906023012 22 211 0.0 4.8 0.03 2.26 2.26 86 1016.1
20260906021505 23 86 3.2 6.4 0.03 2.26 2.26 86 1015.5
20260906020012 23 80 3.2 4.8 0.00 2.24 2.24 86 1015.6
20260906014521 23 13 0.0 1.6 0.00 2.24 2.24 84 1016.1
20260906013017 23 133 1.6 3.2 0.00 2.24 2.24 82 1015.6
20260906011506 23 94 0.0 1.6 0.00 2.24 2.24 81 1015.3
20260906010006 24 139 0.0 0.0 0.00 2.24 2.24 79 1015.2
20260906004509 25 139 0.0 1.6 0.00 2.24 2.24 77 1015.1
20260906003018 25 139 0.0 1.6 0.00 2.24 2.24 77 1014.9
20260906001526 25 139 0.0 0.0 0.00 2.24 2.24 75 1014.3
20260906000008 26 139 0.0 1.6 0.00 2.24 2.24 72 1013.6
20260905234511 26 139 0.0 3.2 0.00 2.24 2.24 70 1013.2
20260905233015 26 119 0.0 6.4 0.00 2.24 2.24 70 1013.5
20260905231508 26 157 1.6 9.7 0.00 2.24 2.24 70 1013.7
20260905230004 26 129 1.6 4.8 0.00 2.24 2.24 70 1013.5
20260905224511 27 117 1.6 4.8 0.00 2.24 2.24 71 1013.5
20260905223015 27 182 4.8 12.9 0.00 2.24 2.24 70 1013.5
20260905221531 26 146 3.2 12.9 0.00 2.24 2.24 70 1013.4
20260905220017 27 112 3.2 9.7 0.00 2.24 2.24 71 1013.5
20260905214508 27 132 3.2 12.9 0.00 2.24 2.24 68 1013.5
20260905213010 27 173 4.8 11.3 0.00 2.24 2.24 70 1013.6
20260905211527 27 116 3.2 12.9 0.00 2.24 2.24 69 1013.8
20260905210024 27 107 3.2 12.9 0.00 2.24 2.24 71 1013.8
20260905204528 27 110 4.8 14.5 0.00 2.24 2.24 68 1014.0